[[{"header":{"parameterUnit":"m.s-1","parameterCategory":1,"la1":30.2991,"la2":30.254,"lo1":-89.0895,"lo2":-89.0444,"dy":0.0017,"dx":0.0017,"nx":28,"ny":28,"refTime":"2024-08-29T21:00:00:Z","depth":0,"parameterNumber":2,"parameterNumberName":"U-component_of_WINDS"},"data":[0,0,0,0,0,0,0,0,0,0,0,0,0,0,0,0,0,0,0,0,0,0,0,0,0,0,0,0,0,0,0,0,0,0,0,0,0,0,0,0,0,0,0,0,0,0,0,0,0,0,0,0,0,0,0,0,0,0,-2.9404,-2.9405,0,-2.9553,-2.9555,-2.9557,-2.961,-2.9609,-2.9609,-2.9608,-2.9758,-2.9763,-2.9767,0,0,0,0,0,0,0,0,0,0,0,0,0,-2.9162,-2.9166,-2.9404,-2.9406,-2.9407,-2.9553,-2.9555,-2.9557,-2.961,-2.9609,-2.9609,-2.9608,-2.9757,-2.9762,-2.9767,0,0,0,0,0,0,0,0,0,0,0,0,0,-2.9284,-2.9167,-2.9403,-2.9452,-2.9457,-2.9552,-2.9555,-2.9557,-2.961,-2.9609,-2.9609,-2.9608,-2.9755,-2.9762,-2.9768,-2.9825,0,0,-2.9789,-2.9792,0,0,0,0,0,0,0,0,-2.9277,-2.9293,-2.9443,-2.9448,-2.9455,-2.9562,-2.9525,-2.9647,-2.961,-2.9552,-2.9608,-2.9607,-2.9693,-2.9705,-2.9735,-2.9832,-2.9839,-2.9789,-2.9793,-2.9796,-2.9798,0,0,0,0,0,0,0,-2.9269,-2.9287,-2.9463,-2.9445,-2.9452,-2.9465,-2.9481,-2.9548,-2.9625,-2.9557,-2.9561,-2.9578,-2.9697,-2.9728,-2.9739,-2.9841,-2.9789,-2.9795,-2.9799,-2.9802,-2.9993,-2.9994,0,0,0,0,0,0,-2.9252,-2.9279,-2.9458,-2.9467,-2.9362,-2.947,-2.9488,-2.9528,-2.9625,-2.9639,-2.9579,-2.958,-2.9717,-2.9731,-2.9744,-2.9817,-2.9796,-2.9803,-2.9806,-2.9992,-2.9993,-2.9994,0,0,0,0,0,0,-2.9247,-2.9268,-2.9452,-2.9375,-2.9399,-2.9475,-2.9519,-2.9532,-2.9564,-2.9641,-2.9655,-2.9597,-2.9717,-2.9735,-2.9805,-2.9823,-2.9806,-2.9812,-2.999,-2.9992,-2.9993,-2.9963,0,0,0,0,0,0,-2.924,-2.9266,-2.9289,-2.9375,-2.9403,-2.9511,-2.9521,-2.9535,-2.9575,-2.9579,-2.9662,-2.9675,-2.9718,-2.9795,-2.9812,-2.9832,-2.9817,-2.9989,-2.9991,-2.9993,-2.9963,-2.9964,-2.9964,0,0,0,0,0,-2.9231,-2.9274,-2.929,-2.9311,-2.9434,-2.9512,-2.9528,-2.9577,-2.9577,-2.96,-2.965,-2.9672,-2.9819,-2.9801,-2.9821,-2.9844,-2.9988,-2.9991,-2.9993,-2.9963,-2.9964,-2.9964,0,0,0,0,0,0,-2.9187,-2.9286,-2.9305,-2.9377,-2.9436,-2.9521,-2.9552,-2.9576,-2.9636,-2.9636,-2.9694,-2.9712,-2.9778,-2.9818,-2.9797,-2.9904,-2.9905,-2.9911,-2.9875,-2.9876,-2.9877,-2.9865,-2.9823,0,0,0,0,0,-2.9186,-2.9242,-2.9325,-2.9381,-2.9409,-2.9475,-2.9511,-2.9544,-2.9607,-2.9632,-2.9687,-2.9746,-2.9806,-2.9844,-2.9902,-2.9969,-2.9988,-2.9995,-2.9995,-2.9995,-3.0,-3.0037,-3.0041,-3.0002,-3.0002,-3.0002,0,0,-2.9184,-2.9245,-2.9276,-2.9373,-2.9423,-2.9479,-2.9496,-2.9554,-2.9596,-2.9641,-2.971,-2.9753,-2.9823,-2.9891,-2.9924,-2.9927,-3.0015,-2.9998,-2.9998,-3.0002,-3.004,-3.0044,-3.0047,-3.0003,-3.0003,-3.0003,0,0,-2.9208,-2.926,-2.9312,-2.9362,-2.9437,-2.948,-2.9493,-2.9574,-2.9605,-2.9676,-2.971,-2.976,-2.9861,-2.991,-2.9947,-2.999,-3.0013,-3.0008,-3.0011,-3.0047,-3.005,-3.0053,-3.0067,-3.0072,-3.0012,-3.0012,-3.0012,0,-2.9195,-2.9282,-2.9335,-2.9392,-2.9433,-2.9477,-2.953,-2.9575,-2.9664,-2.9691,-2.9693,-2.9821,-2.9871,-2.9952,-2.9962,-2.9992,-3.0007,-2.9998,-3.0045,-3.0049,-3.0052,-3.0067,-3.0072,-3.0011,-3.0011,-3.0011,-3.0011,0,-2.9262,-2.9322,-2.9355,-2.9441,-2.9486,-2.954,-2.9601,-2.964,-2.9669,-2.9712,-2.9783,-2.9846,-2.9917,-2.9939,-2.9968,-3.0024,-3.0023,-3.0034,-3.0036,-3.0054,-3.0068,-3.0075,-3.0009,-3.001,-3.001,-3.0011,0,0,-2.9263,-2.9378,-2.9389,-2.9429,-2.9515,-2.9562,-2.9617,-2.9689,-2.9721,-2.9781,-2.9829,-2.9914,-2.9925,-2.9968,-3.0002,-3.0034,-3.0063,-3.0042,-3.0044,-3.0043,-3.0127,-3.0117,-3.0123,-3.0079,-3.0081,-3.0082,-3.0121,0,-2.9297,-2.94,-2.945,-2.953,-2.9585,-2.9628,-2.9676,-2.9734,-2.9776,-2.9828,-2.9874,-2.9933,-2.9944,-2.997,-3.0003,-3.0052,-3.0081,-3.0051,-3.0123,-3.0125,-3.0103,-3.0131,-3.0121,-3.0155,-3.0127,-3.0128,-3.0129,0,-2.9352,-2.9413,-2.9499,-2.9579,-2.9604,-2.9646,-2.9716,-2.9765,-2.9831,-2.9859,-2.9907,-2.9941,-3.0,-2.9999,-3.0081,-3.0059,-3.0092,-3.012,-3.0123,-3.0131,-3.0127,-3.0138,-3.0167,-3.0172,-3.0139,-3.0138,-3.0137,0,-2.9342,-2.9446,-2.9511,-2.9544,-2.9638,-2.9667,-2.9708,-2.9773,-2.9813,-2.9873,-2.9899,-2.9965,-3.0001,-3.0051,-3.0101,-3.0096,-3.0178,-3.0181,-3.0202,-3.0201,-3.0217,-3.0215,-3.0251,-3.024,-3.0239,-3.0239,-3.0239,0,-2.9375,-2.9426,-2.9508,-2.9547,-2.9605,-2.9661,-2.9717,-2.976,-2.9818,-2.9866,-2.9907,-2.9952,-3.0016,-3.0068,-3.0108,-3.0169,-3.0185,-3.0209,-3.0219,-3.0205,-3.0202,-3.0226,-3.0225,-3.0241,-3.024,-3.024,-3.024,0,-2.9373,-2.9431,-2.9504,-2.9588,-2.961,-2.9649,-2.972,-2.976,-2.9804,-2.9864,-2.9882,-2.9951,-3.0014,-3.007,-3.0154,-3.018,-3.0243,-3.0256,-3.0221,-3.0226,-3.0244,-3.0241,-3.0296,-3.0306,-3.0288,-3.0288,-3.0288,0,-2.939,-2.9431,-2.9519,-2.9555,-2.9595,-2.9652,-2.9693,-2.9749,-2.979,-2.9868,-2.9898,-2.9965,-3.0021,-3.0121,-3.0178,-3.0242,-3.0255,-3.027,-3.0265,-3.025,-3.0255,-3.0251,-3.0255,-3.027,-3.027,-3.0269,-3.0269,0,-2.9414,-2.944,-2.9498,-2.9566,-2.9614,-2.967,-2.9727,-2.9753,-2.9821,-2.9864,-2.993,-2.9974,-3.006,-3.0125,-3.0195,-3.0236,-3.0264,-3.0271,-3.0279,-3.0265,-3.0243,-3.0254,-3.022,-3.0269,-3.0269,-3.0269,-3.0269,-3.0269,-2.9422,-2.9459,-2.9527,-2.959,-2.9639,-2.9691,-2.9733,-2.9783,-2.9839,-2.9914,-2.9944,-3.001,-3.0075,-3.0173,-3.0214,-3.0266,-3.0271,-3.0283,-3.0286,-3.0288,-3.0285,-3.0235,-3.028,-3.028,-3.028,-3.028,-3.028,0,-2.9447,-2.9493,-2.955,-2.9629,-2.9678,-2.9701,-2.9765,-2.9805,-2.9863,-2.9922,-2.9977,-3.0052,-3.0116,-3.0178,-3.0245,-3.0275,-3.0289,-3.029,-3.0288,-3.0297,-3.0278,-3.0263,-3.0278,-3.0278,-3.0278,-3.0278,-3.0278,-3.0278,-2.9466,-2.953,-2.9564,-2.9653,-2.9699,-2.9765,-2.98,-2.9848,-2.9895,-2.9977,-3.0031,-3.0071,-3.0131,-3.0203,-3.0262,-3.0279,-3.0301,-3.0299,-3.0318,-3.0299,-3.0298,-3.0298,-3.0285,-3.0303,-3.0303,-3.0334,-3.0334,-3.0334]},{"header":{"parameterUnit":"m.s-1","parameterCategory":1,"la1":30.2991,"la2":30.254,"lo1":-89.0895,"lo2":-89.0444,"dy":0.0017,"dx":0.0017,"nx":28,"ny":28,"refTime":"2024-08-29T21:00:00:Z","depth":0,"parameterNumber":3,"parameterNumberName":"V-component_of_WINDS"},"data":[0,0,0,0,0,0,0,0,0,0,0,0,0,0,0,0,0,0,0,0,0,0,0,0,0,0,0,0,0,0,0,0,0,0,0,0,0,0,0,0,0,0,0,0,0,0,0,0,0,0,0,0,0,0,0,0,0,0,4.6945,4.6945,0,4.6954,4.6954,4.6954,4.6883,4.6881,4.6879,4.6878,4.6885,4.6887,4.6889,0,0,0,0,0,0,0,0,0,0,0,0,0,4.6863,4.6865,4.6945,4.6945,4.6945,4.6954,4.6954,4.6955,4.6884,4.6881,4.6879,4.6877,4.6884,4.6887,4.6889,0,0,0,0,0,0,0,0,0,0,0,0,0,4.6888,4.6865,4.6945,4.6911,4.6908,4.6954,4.6954,4.6955,4.6884,4.6881,4.6878,4.6875,4.6884,4.6887,4.689,4.6968,0,0,4.6899,4.69,0,0,0,0,0,0,0,0,4.6887,4.6891,4.6916,4.6913,4.691,4.6915,4.6928,4.6959,4.6885,4.6893,4.6877,4.6874,4.6897,4.6899,4.6907,4.6969,4.6969,4.6899,4.6901,4.6903,4.6903,0,0,0,0,0,0,0,4.6885,4.689,4.6949,4.6916,4.6913,4.6894,4.6895,4.6934,4.6912,4.6892,4.6887,4.6889,4.6895,4.6904,4.6907,4.6969,4.6899,4.6902,4.6904,4.6905,4.7093,4.7096,0,0,0,0,0,0,4.6888,4.6889,4.6948,4.6949,4.6891,4.6898,4.6899,4.6916,4.6911,4.6908,4.6892,4.6886,4.6901,4.6903,4.6907,4.6997,4.6903,4.6905,4.6907,4.709,4.7094,4.7098,0,0,0,0,0,0,4.6887,4.6894,4.6948,4.6918,4.6923,4.6903,4.6923,4.6918,4.6927,4.6911,4.6906,4.6906,4.6898,4.6903,4.6953,4.6996,4.6907,4.691,4.7087,4.7092,4.7096,4.7179,0,0,0,0,0,0,4.6885,4.6894,4.6924,4.6919,4.6925,4.6995,4.6926,4.692,4.6933,4.6925,4.6923,4.6919,4.6896,4.6949,4.6956,4.6999,4.6912,4.7083,4.7089,4.7094,4.7172,4.7186,4.7198,0,0,0,0,0,4.6882,4.6948,4.6926,4.6934,4.6963,4.6998,4.7001,4.6974,4.6937,4.6966,4.6956,4.6919,4.6991,4.6955,4.6962,4.7007,4.708,4.7087,4.7094,4.7167,4.7183,4.7198,0,0,0,0,0,0,4.6958,4.6946,4.6923,4.6988,4.6995,4.6986,4.7022,4.6993,4.7009,4.7002,4.6967,4.6967,4.7023,4.702,4.698,4.7082,4.7029,4.7038,4.7081,4.7097,4.711,4.7108,4.6915,0,0,0,0,0,4.6983,4.7013,4.7001,4.706,4.7064,4.7043,4.7057,4.7036,4.7041,4.7043,4.7036,4.7041,4.7065,4.7081,4.7102,4.7172,4.717,4.7206,4.7219,4.7229,4.7237,4.7273,4.7288,4.7121,4.7121,4.7121,0,0,4.7033,4.7031,4.7052,4.7075,4.7077,4.7108,4.7046,4.7082,4.7104,4.7048,4.7095,4.7091,4.7094,4.7155,4.7181,4.7154,4.7283,4.7239,4.7247,4.7249,4.7282,4.7297,4.7311,4.7126,4.7125,4.7124,0,0,4.7141,4.7143,4.7192,4.7195,4.72,4.7185,4.7197,4.7193,4.7187,4.7234,4.7193,4.7218,4.726,4.7264,4.7271,4.7381,4.7347,4.7388,4.7454,4.7489,4.7502,4.7514,4.7551,4.7565,4.7396,4.7397,4.7397,0,4.7204,4.7249,4.722,4.7259,4.7269,4.7221,4.7269,4.7274,4.7285,4.7293,4.7263,4.7313,4.7313,4.7373,4.7399,4.7407,4.7419,4.7388,4.7503,4.7514,4.7524,4.756,4.7574,4.7401,4.7401,4.74,4.74,0,4.7325,4.7357,4.7396,4.7408,4.7423,4.7466,4.7443,4.7462,4.7439,4.7427,4.7475,4.7472,4.7491,4.7504,4.7482,4.7561,4.7544,4.7509,4.7455,4.7546,4.7578,4.7592,4.7408,4.7407,4.7405,4.7404,0,0,4.748,4.7476,4.749,4.7494,4.7495,4.7519,4.756,4.7579,4.7595,4.7604,4.7636,4.7672,4.764,4.7649,4.7627,4.7658,4.7742,4.7619,4.7618,4.7641,4.7827,4.7852,4.7868,4.7721,4.7723,4.7725,4.7826,0,4.7584,4.7654,4.7628,4.7699,4.7727,4.7682,4.7717,4.7721,4.7711,4.7733,4.7722,4.7748,4.7704,4.7708,4.7737,4.7726,4.7779,4.7719,4.7749,4.775,4.7748,4.7885,4.7912,4.8008,4.7839,4.7841,4.7843,0,4.7715,4.7729,4.7803,4.7798,4.7809,4.7841,4.7856,4.7878,4.7881,4.7872,4.7881,4.7853,4.7891,4.7838,4.7889,4.7849,4.786,4.7856,4.7859,4.786,4.7801,4.7888,4.8038,4.8051,4.7863,4.7861,4.7859,0,4.7819,4.7857,4.7905,4.7911,4.7907,4.793,4.7929,4.793,4.7942,4.7955,4.7962,4.798,4.7989,4.8002,4.7978,4.7942,4.8033,4.7978,4.8025,4.8026,4.8045,4.8044,4.8197,4.8055,4.8055,4.8054,4.8054,0,4.7937,4.7983,4.7952,4.7982,4.8032,4.8002,4.8052,4.8046,4.8047,4.8074,4.8036,4.8062,4.803,4.8052,4.8034,4.8079,4.8084,4.8076,4.8071,4.8079,4.808,4.8084,4.8077,4.8058,4.8057,4.8057,4.8056,0,4.8061,4.8042,4.8092,4.8084,4.8083,4.812,4.8113,4.8139,4.8127,4.8161,4.8168,4.8148,4.8173,4.8151,4.8175,4.8162,4.8222,4.8207,4.8221,4.8216,4.8263,4.8259,4.8423,4.8443,4.829,4.8292,4.8293,0,4.8137,4.8171,4.8167,4.8183,4.8184,4.821,4.8222,4.8194,4.8209,4.8215,4.8241,4.8262,4.8278,4.8319,4.8307,4.8324,4.8309,4.8366,4.8311,4.8318,4.8308,4.8306,4.8308,4.8376,4.8378,4.8379,4.8381,0,4.8273,4.8261,4.8281,4.8298,4.8314,4.8326,4.8334,4.8349,4.832,4.8338,4.8363,4.8375,4.84,4.8421,4.8435,4.8433,4.8402,4.8398,4.8409,4.8418,4.8423,4.8419,4.8249,4.8394,4.8393,4.8392,4.8391,4.839,4.8374,4.8402,4.8403,4.8426,4.8429,4.8438,4.8462,4.8453,4.8474,4.8491,4.8473,4.8503,4.8505,4.852,4.8522,4.8544,4.8521,4.8538,4.8542,4.8546,4.8552,4.8421,4.8547,4.8547,4.8546,4.8546,4.8546,0,4.8506,4.8504,4.8526,4.8539,4.8557,4.8527,4.8535,4.8552,4.8579,4.8583,4.8599,4.8627,4.8648,4.8637,4.8655,4.8675,4.8661,4.868,4.8677,4.8677,4.8573,4.8561,4.8691,4.8691,4.8691,4.8691,4.8691,4.8691,4.8577,4.8622,4.8611,4.8657,4.8655,4.8685,4.8691,4.8699,4.8702,4.8735,4.8752,4.8745,4.8743,4.876,4.8777,4.8773,4.8781,4.8805,4.8797,4.8699,4.8685,4.8671,4.8659,4.8808,4.8808,4.8898,4.8899,4.89]}]]